This is the latest recevied weather packets stored in our database for station/object WX5KDM. If no packets are shown the sender has not sent any weather packets the latest 10 day(s).
| Time | Temp. | Humidity | Pressure | Rain* | Wind** | Luminosity | Snow |
|---|---|---|---|---|---|---|---|
| 1777615467 | 11.67° C | 80% | 1015.9 hPa | 0 mm | - | - | - |
| 1777615166 | 11.67° C | 78% | 1016 hPa | 0 mm | - | - | - |
| 1777614862 | 11.67° C | 76% | 1016.1 hPa | 0 mm | - | - | - |
| 1777614559 | 11.67° C | 78% | 1016.3 hPa | 0 mm | - | - | - |
| 1777614254 | 11.67° C | 77% | 1016.1 hPa | 0 mm | - | - | - |
| 1777613949 | 12.22° C | 75% | 1016 hPa | 0 mm | - | - | - |
| 1777613646 | 12.22° C | 75% | 1015.9 hPa | 0 mm | - | - | - |
| 1777613343 | 12.78° C | 74% | 1016.1 hPa | 0 mm | - | - | - |
| 1777613040 | 12.78° C | 72% | 1016.2 hPa | 0 mm | - | - | - |
| 1777612736 | 12.78° C | 69% | 1016.3 hPa | 0 mm | - | - | - |
| 1777612432 | 12.78° C | 69% | 1016.3 hPa | 0 mm | - | - | - |
| 1777612127 | 12.78° C | 70% | 1016 hPa | 0 mm | - | - | - |
| 1777611823 | 12.78° C | 68% | 1015.8 hPa | 0 mm | - | - | - |
| 1777611519 | 13.33° C | 69% | 1016 hPa | 0 mm | - | - | - |
| 1777611216 | 13.33° C | 70% | 1016 hPa | 0 mm | - | - | - |
| 1777610913 | 13.33° C | 69% | 1016 hPa | 0 mm | - | - | - |
| 1777610608 | 13.33° C | 67% | 1015.8 hPa | 0 mm | - | - | - |
| 1777610306 | 13.33° C | 68% | 1015.9 hPa | 0 mm | - | - | - |
| 1777610004 | 13.33° C | 67% | 1015.6 hPa | 0 mm | - | - | - |
| 1777609700 | 13.33° C | 66% | 1015.6 hPa | 0 mm | - | - | - |
| 1777609392 | 13.33° C | 68% | 1015.5 hPa | 0 mm | - | - | - |
| 1777609090 | 13.33° C | 66% | 1015.6 hPa | 0 mm | - | - | - |
| 1777608787 | 13.33° C | 66% | 1015.9 hPa | 0 mm | - | - | - |
| 1777608483 | 13.33° C | 67% | 1015.8 hPa | 0 mm | - | - | - |
| 1777608181 | 13.33° C | 67% | 1015.8 hPa | 0 mm | - | - | - |
* Rain latest hour (hover to see other rain measurements)
** Current wind speed in m/s (hover to see current wind gust speed)